Home > Weather > Jackson > Past weeks

Flag for USA Past Weather in Jackson, Mississippi, USA — Yesterday and Last 2 Weeks

Now
88 °F

Passing clouds.


Feels Like: 92 °F
Forecast: 68 / 89 °F
Wind: 8 mph from South

Location: Hawkins Field

Current Time: May 25, 2016 at 5:52:10 PM

Latest Report: May 25, 2016 at 4:53 PM


Visibility: 10 mi

Pressure: 30.04 "Hg

Humidity: 52%

Dew Point: 68 °F

Location of JacksonLocation

Past Weather in Jackson — Graph

°F

Jackson Temperature Yesterday

Maximum temperature yesterday: 87 °F (at 2:53 PM)
Minimum temperature yesterday: 63 °F (at 4:53 AM)
Average temperature yesterday: 76 °F

High & Low Weather Summary for the Past Weeks

 TemperatureHumidityPressure
High88 °F (May 25, 4:53 PM)100% (May 18, 12:53 AM)30.18 "Hg (May 18, 12:53 AM)
Low53 °F (May 14, 5:53 AM)29% (May 13, 5:53 PM)29.81 "Hg (May 20, 1:53 AM)
Average72 °F67%30.02 "Hg
* Reported May 10 4:53 PM — May 25 4:53 PM, Jackson, Weather by CustomWeather, © 2016

Note: Actual official high and low records may vary slightly from our data, if they occured in-between our weather recording intervals... More about our weather records

Advertising

Jackson Weather History for the Previous 24 Hours

Scroll right to see more
 ConditionsComfort  
Time TempWeatherWind HumidityBarometerVisibility
4:53 PM
Wed, May 25
88 °FPassing clouds.8 mph52%30.04 "Hg10 mi
3:53 PM86 °FPartly sunny.9 mph51%30.07 "Hg10 mi
2:53 PM86 °FScattered clouds.12 mph53%30.08 "Hg10 mi
1:53 PM86 °FScattered clouds.14 mph55%30.10 "Hg10 mi
12:53 PM84 °FPassing clouds.10 mph61%30.11 "Hg10 mi
12:02 PM82 °FScattered clouds.10 mph65%30.15 "Hg10 mi
10:53 AM79 °FPartly sunny.9 mph74%30.13 "Hg10 mi
9:53 AM75 °FOvercast.7 mph82%30.14 "Hg10 mi
8:53 AM73 °FLow clouds.5 mph88%30.14 "Hg9 mi
7:53 AM71 °FLow clouds.No wind90%30.14 "Hg8 mi
6:53 AM69 °FClear.3 mph93%30.10 "Hg9 mi
5:53 AM68 °FClear.5 mph93%30.08 "Hg10 mi
4:53 AM69 °FClear.8 mph90%30.05 "Hg10 mi
3:53 AM69 °FClear.8 mph90%30.05 "Hg10 mi
2:53 AM69 °FClear.5 mph90%30.06 "Hg10 mi
1:53 AM70 °FClear.7 mph87%30.08 "Hg10 mi
12:53 AM72 °FClear.8 mph78%30.09 "Hg10 mi
11:53 PM
Tue, May 24
74 °FClear.9 mph71%30.09 "Hg10 mi
10:53 PM75 °FClear.8 mph64%30.09 "Hg10 mi
9:53 PM76 °FClear.6 mph58%30.08 "Hg10 mi
8:53 PM77 °FSunny.6 mph54%30.06 "Hg10 mi
7:53 PM79 °FSunny.8 mph48%30.04 "Hg10 mi
6:53 PM84 °FSunny.9 mph41%30.02 "Hg10 mi
5:53 PM86 °FSunny.9 mph40%30.02 "Hg10 mi
Weather by CustomWeather, © 2016

See weather overviewHow to use our weather pages